HLY401 EDDF-KJFK

Flight info

Callsign HLY401
Flight time 7h 34m
Altitude 34000
Route OBOKA3W OBOKA Z29 TORNU DCT VICOT DCT GALSO Q63 ERING L179 UGBET Q60 OKSAW DCT BIBPE DCT TIGWE DCT FELCA DCT FADZU DCT NICXI DCT OFSOX DCT SLANY DCT DIMUS DCT MALOT/M085F360 NATE RIKAL/N0486F380 N572A TOPPS DCT ENE PARCH4
Aircraft A35K/H-SDE2E3GHIJ3J4J5LM1ORWXY/LB1D1

Departure

Time 2026-05-05 13:40
Airport Frankfurt Main Airport (EDDF)

Arrival

Time 2026-05-05 21:14
Airport John F. Kennedy International Airport (KJFK)
Time Latitude Longitude Altitude Speed Heading
2026-05-05 12:57 50.03823 8.54582 373 ft 0 kts 159°
2026-05-05 12:57 50.03824 8.54581 374 ft 0 kts 160°
2026-05-05 13:32 50.03822 8.54582 374 ft 1 kts 160°
2026-05-05 13:33 50.03809 8.54589 376 ft 0 kts 160°
2026-05-05 13:33 50.03809 8.54590 376 ft 1 kts 160°
2026-05-05 13:33 50.03797 8.54596 375 ft 3 kts 160°
2026-05-05 13:34 50.03771 8.54611 375 ft 5 kts 162°
2026-05-05 13:34 50.03738 8.54597 376 ft 5 kts 217°
2026-05-05 13:34 50.03714 8.54543 377 ft 7 kts 240°
2026-05-05 13:34 50.03696 8.54469 373 ft 8 kts 257°
2026-05-05 13:35 50.03710 8.54392 376 ft 7 kts 314°
2026-05-05 13:35 50.03759 8.54358 376 ft 8 kts 339°
2026-05-05 13:35 50.03806 8.54305 377 ft 8 kts 295°
2026-05-05 13:35 50.03798 8.54216 378 ft 9 kts 249°
2026-05-05 13:36 50.03774 8.54119 372 ft 10 kts 250°
2026-05-05 13:36 50.03749 8.54010 376 ft 11 kts 250°
2026-05-05 13:36 50.03721 8.53890 376 ft 12 kts 250°
2026-05-05 13:36 50.03690 8.53759 379 ft 13 kts 250°
2026-05-05 13:37 50.03657 8.53619 374 ft 14 kts 250°
2026-05-05 13:37 50.03623 8.53474 377 ft 15 kts 250°
2026-05-05 13:37 50.03586 8.53329 378 ft 15 kts 248°
2026-05-05 13:37 50.03547 8.53178 375 ft 15 kts 249°
2026-05-05 13:38 50.03510 8.53023 378 ft 15 kts 250°
2026-05-05 13:38 50.03473 8.52867 376 ft 15 kts 249°
2026-05-05 13:38 50.03436 8.52713 378 ft 15 kts 249°
2026-05-05 13:38 50.03374 8.52606 379 ft 14 kts 197°
2026-05-05 13:39 50.03273 8.52600 379 ft 21 kts 179°
2026-05-05 13:39 50.02900 8.52603 376 ft 85 kts 179°
2026-05-05 13:39 50.02127 8.52600 379 ft 139 kts 180°
2026-05-05 13:39 50.00986 8.52620 430 ft 179 kts 181°
2026-05-05 13:40 49.99753 8.52661 1038 ft 180 kts 179°
2026-05-05 13:40 49.98498 8.52738 1694 ft 186 kts 179°
2026-05-05 13:40 49.97136 8.52832 1913 ft 207 kts 178°
2026-05-05 13:40 49.95625 8.52936 2302 ft 224 kts 178°
2026-05-05 13:41 49.94054 8.53044 2946 ft 228 kts 178°
2026-05-05 13:41 49.92460 8.53156 3634 ft 229 kts 178°
2026-05-05 13:41 49.90861 8.53263 4241 ft 231 kts 178°
2026-05-05 13:41 49.89263 8.53346 4897 ft 231 kts 181°
2026-05-05 13:42 49.87695 8.52840 5506 ft 233 kts 206°
2026-05-05 13:42 49.86431 8.51225 5929 ft 246 kts 232°
2026-05-05 13:42 49.85488 8.48910 6313 ft 259 kts 239°
2026-05-05 13:42 49.84590 8.46445 6915 ft 265 kts 239°
2026-05-05 13:43 49.83667 8.43950 7600 ft 269 kts 238°
2026-05-05 13:43 49.82715 8.41423 8335 ft 274 kts 238°
2026-05-05 13:43 49.81754 8.38858 9097 ft 278 kts 240°
2026-05-05 13:43 49.81070 8.36046 9810 ft 284 kts 257°
2026-05-05 13:44 49.81052 8.32916 10258 ft 302 kts 279°
2026-05-05 13:44 49.81904 8.29837 10526 ft 325 kts 304°
2026-05-05 13:44 49.83552 8.27310 10816 ft 344 kts 320°
2026-05-05 13:44 49.85475 8.24947 11112 ft 361 kts 321°
2026-05-05 13:45 49.87472 8.22492 11501 ft 372 kts 320°
2026-05-05 13:45 49.89504 8.19958 12111 ft 377 kts 320°
2026-05-05 13:45 49.91549 8.17383 12780 ft 380 kts 320°
2026-05-05 13:45 49.93608 8.14776 13452 ft 384 kts 320°
2026-05-05 13:46 49.95683 8.12138 14016 ft 388 kts 320°
2026-05-05 13:46 49.97782 8.09464 14577 ft 392 kts 320°
2026-05-05 13:46 49.99900 8.06760 15155 ft 396 kts 319°
2026-05-05 13:46 50.02035 8.04029 15726 ft 399 kts 319°
2026-05-05 13:47 50.04187 8.01274 16283 ft 403 kts 319°
2026-05-05 13:47 50.06359 7.98489 16839 ft 406 kts 319°
2026-05-05 13:47 50.08549 7.95678 17378 ft 410 kts 319°
2026-05-05 13:47 50.10756 7.92840 17950 ft 413 kts 319°
2026-05-05 13:48 50.12978 7.89981 18451 ft 417 kts 319°
2026-05-05 13:48 50.15226 7.87084 18943 ft 420 kts 319°
2026-05-05 13:48 50.17483 7.84173 19440 ft 423 kts 319°
2026-05-05 13:48 50.19733 7.81265 19969 ft 427 kts 319°
2026-05-05 13:49 50.22025 7.78298 20482 ft 430 kts 319°
2026-05-05 13:49 50.24358 7.75334 21010 ft 434 kts 322°
2026-05-05 13:49 50.26938 7.72844 21493 ft 439 kts 333°
2026-05-05 13:49 50.29718 7.70855 22016 ft 442 kts 336°
2026-05-05 13:50 50.32558 7.68929 22541 ft 446 kts 336°
2026-05-05 13:50 50.35410 7.66994 23038 ft 449 kts 336°
2026-05-05 13:50 50.38291 7.65034 23508 ft 453 kts 336°
2026-05-05 13:50 50.41189 7.63050 23921 ft 457 kts 335°
2026-05-05 13:51 50.44108 7.61044 24380 ft 459 kts 335°
2026-05-05 13:51 50.47047 7.59020 24813 ft 463 kts 335°
2026-05-05 13:51 50.50009 7.56977 25233 ft 466 kts 335°
2026-05-05 13:51 50.52988 7.54919 25650 ft 470 kts 334°
2026-05-05 13:52 50.55938 7.52690 26038 ft 472 kts 328°
2026-05-05 13:52 50.58740 7.49998 26453 ft 473 kts 325°
2026-05-05 13:52 50.61544 7.47135 26871 ft 476 kts 324°
2026-05-05 13:52 50.64291 7.44312 27328 ft 478 kts 324°
2026-05-05 13:53 50.67072 7.41454 27902 ft 477 kts 324°
2026-05-05 13:53 50.68956 7.39517 28218 ft 479 kts 324°
2026-05-05 13:53 50.71689 7.36503 28604 ft 480 kts 318°
2026-05-05 13:53 50.74110 7.32911 28977 ft 477 kts 308°
2026-05-05 13:54 50.76085 7.28718 29363 ft 474 kts 297°
2026-05-05 13:54 50.77714 7.24188 29750 ft 475 kts 294°
2026-05-05 13:54 50.79252 7.19572 30072 ft 476 kts 293°
2026-05-05 13:54 50.80756 7.14892 30348 ft 479 kts 292°
2026-05-05 13:55 50.82254 7.10175 30620 ft 481 kts 292°
2026-05-05 13:55 50.83757 7.05440 30898 ft 483 kts 292°
2026-05-05 13:55 50.85275 7.00679 31155 ft 486 kts 292°
2026-05-05 13:55 50.86809 6.95890 31398 ft 488 kts 292°
2026-05-05 13:56 50.88353 6.91100 31783 ft 488 kts 292°
2026-05-05 13:56 50.89893 6.86318 32199 ft 487 kts 292°
2026-05-05 13:56 50.91428 6.81538 32606 ft 486 kts 292°
2026-05-05 13:56 50.92958 6.76762 33000 ft 486 kts 292°
2026-05-05 13:57 50.94483 6.71991 33331 ft 485 kts 291°
2026-05-05 13:57 50.96004 6.67220 33626 ft 485 kts 291°
2026-05-05 13:57 50.97523 6.62448 33907 ft 484 kts 291°
2026-05-05 13:57 50.99036 6.57686 34252 ft 481 kts 292°
2026-05-05 13:58 51.00535 6.52968 34617 ft 478 kts 292°
2026-05-05 13:58 51.02029 6.48253 34822 ft 478 kts 292°
2026-05-05 13:58 51.03521 6.43528 34978 ft 479 kts 292°
2026-05-05 13:58 51.05013 6.38793 35157 ft 479 kts 292°
2026-05-05 13:59 51.07996 6.29303 35529 ft 480 kts 292°
2026-05-05 13:59 51.09485 6.24555 35734 ft 480 kts 292°
2026-05-05 14:00 51.12465 6.15018 35881 ft 485 kts 292°
2026-05-05 14:00 51.13798 6.10157 35870 ft 485 kts 286°
2026-05-05 14:00 51.15688 5.99921 35881 ft 480 kts 281°
2026-05-05 14:01 51.17365 5.89632 35882 ft 480 kts 281°
2026-05-05 14:01 51.19026 5.79255 35876 ft 480 kts 281°
2026-05-05 14:02 51.20808 5.68998 35883 ft 480 kts 282°
2026-05-05 14:02 51.22612 5.58825 35881 ft 481 kts 282°
2026-05-05 14:03 51.24422 5.48472 35878 ft 481 kts 282°
2026-05-05 14:03 51.26196 5.38178 35878 ft 481 kts 281°
2026-05-05 14:04 51.27958 5.27875 35885 ft 481 kts 281°
2026-05-05 14:04 51.29711 5.17562 35880 ft 481 kts 282°
2026-05-05 14:05 51.31454 5.07252 35884 ft 481 kts 282°
2026-05-05 14:05 51.33178 4.96998 35896 ft 481 kts 282°
2026-05-05 14:06 51.34903 4.86673 35898 ft 481 kts 281°
2026-05-05 14:06 51.36620 4.76337 35911 ft 481 kts 281°
2026-05-05 14:07 51.38331 4.65969 35899 ft 483 kts 281°
2026-05-05 14:07 51.40038 4.55565 35906 ft 483 kts 281°
2026-05-05 14:08 51.41737 4.45147 35912 ft 483 kts 281°
2026-05-05 14:08 51.43426 4.34727 35911 ft 483 kts 281°
2026-05-05 14:09 51.45106 4.24298 35911 ft 483 kts 281°
2026-05-05 14:09 51.46777 4.13853 35909 ft 483 kts 281°
2026-05-05 14:10 51.48725 4.03524 35908 ft 487 kts 290°
2026-05-05 14:10 51.51472 3.93576 35900 ft 488 kts 291°
2026-05-05 14:11 51.54330 3.83722 35908 ft 486 kts 292°
2026-05-05 14:11 51.57189 3.73880 35909 ft 486 kts 292°
2026-05-05 14:12 51.60025 3.64023 35913 ft 486 kts 291°
2026-05-05 14:12 51.62845 3.54149 35914 ft 486 kts 291°
2026-05-05 14:13 51.65659 3.44250 35916 ft 486 kts 291°
2026-05-05 14:13 51.68462 3.34349 35925 ft 486 kts 291°
2026-05-05 14:14 51.71190 3.24402 35926 ft 484 kts 287°
2026-05-05 14:14 51.72585 3.13904 35928 ft 477 kts 270°
2026-05-05 14:15 51.72167 3.03369 35931 ft 474 kts 261°
2026-05-05 14:15 51.71256 2.92844 35931 ft 474 kts 259°
2026-05-05 14:16 51.70282 2.82343 35933 ft 473 kts 259°
2026-05-05 14:16 51.69328 2.71858 35932 ft 473 kts 260°
2026-05-05 14:17 51.68388 2.61365 35935 ft 473 kts 259°
2026-05-05 14:17 51.67447 2.50887 35937 ft 473 kts 260°
2026-05-05 14:18 51.66498 2.40399 35946 ft 473 kts 260°
2026-05-05 14:18 51.65527 2.29915 35943 ft 474 kts 259°
2026-05-05 14:19 51.64547 2.19415 35944 ft 474 kts 260°
2026-05-05 14:19 51.63561 2.08918 35947 ft 474 kts 259°
2026-05-05 14:20 51.62588 1.98423 35950 ft 474 kts 260°
2026-05-05 14:20 51.61615 1.87910 35952 ft 476 kts 259°
2026-05-05 14:21 51.60620 1.77354 35947 ft 478 kts 259°
2026-05-05 14:21 51.59612 1.66791 35953 ft 478 kts 259°
2026-05-05 14:22 51.59323 1.56099 35950 ft 481 kts 270°
2026-05-05 14:22 51.59711 1.45346 35958 ft 482 kts 272°
2026-05-05 14:23 51.60191 1.34619 35961 ft 480 kts 272°
2026-05-05 14:23 51.60662 1.23900 35957 ft 480 kts 272°
2026-05-05 14:24 51.61104 1.13190 35962 ft 480 kts 272°
2026-05-05 14:24 51.61522 1.02551 35957 ft 480 kts 272°
2026-05-05 14:25 51.61933 0.91844 35964 ft 479 kts 272°
2026-05-05 14:25 51.62342 0.81182 35966 ft 476 kts 271°
2026-05-05 14:26 51.62734 0.70551 35967 ft 476 kts 271°
2026-05-05 14:26 51.63120 0.59906 35967 ft 476 kts 271°
2026-05-05 14:27 51.63492 0.49270 35962 ft 476 kts 271°
2026-05-05 14:27 51.63851 0.38612 35956 ft 478 kts 271°
2026-05-05 14:28 51.64200 0.27938 35957 ft 478 kts 271°
2026-05-05 14:28 51.64476 0.17247 35959 ft 477 kts 267°
2026-05-05 14:29 51.63724 0.06679 35962 ft 475 kts 259°
2026-05-05 14:29 51.62618 -0.03802 35982 ft 475 kts 258°
2026-05-05 14:30 51.61989 -0.14403 35992 ft 479 kts 271°
2026-05-05 14:30 51.62469 -0.25097 35991 ft 480 kts 274°
2026-05-05 14:31 51.63134 -0.35781 35967 ft 480 kts 274°
2026-05-05 14:31 51.63808 -0.46473 35939 ft 480 kts 274°
2026-05-05 14:32 51.64452 -0.57177 35939 ft 480 kts 274°
2026-05-05 14:32 51.65074 -0.67878 35941 ft 480 kts 274°
2026-05-05 14:33 51.65684 -0.78578 35943 ft 480 kts 274°
2026-05-05 14:33 51.66285 -0.89287 35946 ft 480 kts 274°
2026-05-05 14:34 51.66873 -0.99925 35967 ft 480 kts 273°
2026-05-05 14:34 51.67457 -1.10663 35966 ft 482 kts 273°
2026-05-05 14:35 51.68032 -1.21416 35967 ft 482 kts 273°
2026-05-05 14:35 51.68601 -1.32256 35963 ft 482 kts 273°
2026-05-05 14:36 51.69153 -1.42951 35965 ft 482 kts 273°
2026-05-05 14:36 51.69698 -1.53714 35966 ft 482 kts 273°
2026-05-05 14:37 51.70234 -1.64493 35966 ft 482 kts 273°
2026-05-05 14:37 51.70820 -1.75256 35981 ft 482 kts 275°
2026-05-05 14:38 51.71625 -1.85994 35982 ft 483 kts 275°
2026-05-05 14:38 51.72322 -1.94987 35991 ft 482 kts 275°
2026-05-05 14:39 51.73104 -2.05737 35988 ft 483 kts 275°
2026-05-05 14:39 51.73850 -2.16418 35992 ft 482 kts 275°
2026-05-05 14:40 51.74583 -2.27162 35990 ft 482 kts 275°
2026-05-05 14:40 51.75312 -2.37919 35992 ft 482 kts 274°
2026-05-05 14:41 51.76029 -2.48671 35988 ft 481 kts 275°
2026-05-05 14:41 51.76736 -2.59400 35975 ft 480 kts 275°
2026-05-05 14:42 51.77433 -2.70116 35988 ft 479 kts 275°
2026-05-05 14:42 51.78118 -2.80827 35989 ft 480 kts 275°
2026-05-05 14:43 51.78796 -2.91546 36026 ft 479 kts 275°
2026-05-05 14:43 51.79462 -3.02273 36023 ft 481 kts 275°
2026-05-05 14:44 51.80123 -3.13056 36020 ft 482 kts 275°
2026-05-05 14:44 51.80772 -3.23813 36004 ft 481 kts 275°
2026-05-05 14:45 51.81413 -3.34590 36014 ft 482 kts 275°
2026-05-05 14:45 51.82038 -3.45299 36005 ft 482 kts 276°
2026-05-05 14:46 51.82866 -3.56062 36000 ft 484 kts 281°
2026-05-05 14:46 51.84178 -3.66727 35997 ft 483 kts 282°
2026-05-05 14:47 51.85560 -3.77374 36006 ft 484 kts 282°
2026-05-05 14:47 51.86939 -3.88030 36007 ft 484 kts 282°
2026-05-05 14:48 51.88299 -3.98686 36013 ft 484 kts 282°
2026-05-05 14:48 51.89649 -4.09368 36011 ft 485 kts 282°
2026-05-05 14:49 51.90986 -4.20067 36019 ft 484 kts 282°
2026-05-05 14:49 51.92311 -4.30760 36025 ft 484 kts 282°
2026-05-05 14:50 51.93630 -4.41463 36022 ft 485 kts 282°
2026-05-05 14:50 51.94937 -4.52157 36027 ft 483 kts 282°
2026-05-05 14:51 51.96231 -4.62830 36030 ft 482 kts 282°
2026-05-05 14:51 51.97511 -4.73476 36039 ft 481 kts 281°
2026-05-05 14:52 51.98146 -4.78794 36161 ft 479 kts 281°
2026-05-05 14:52 51.98774 -4.84079 36549 ft 474 kts 282°
2026-05-05 14:52 51.99394 -4.89309 36819 ft 472 kts 281°
2026-05-05 14:52 52.00013 -4.94543 37039 ft 471 kts 281°
2026-05-05 14:53 52.00621 -4.99703 37174 ft 472 kts 281°
2026-05-05 14:53 52.01242 -5.05007 37370 ft 471 kts 281°
2026-05-05 14:53 52.01852 -5.10219 37586 ft 470 kts 281°
2026-05-05 14:53 52.02449 -5.15343 37849 ft 467 kts 281°
2026-05-05 14:54 52.04142 -5.25553 37948 ft 470 kts 288°
2026-05-05 14:54 52.06166 -5.35711 38030 ft 474 kts 288°
2026-05-05 14:55 52.08242 -5.45921 38051 ft 477 kts 288°
2026-05-05 14:55 52.10305 -5.56154 38054 ft 476 kts 288°
2026-05-05 14:56 52.12346 -5.66387 38060 ft 476 kts 288°
2026-05-05 14:56 52.14382 -5.76670 38076 ft 478 kts 288°
2026-05-05 14:57 52.16408 -5.86950 38059 ft 476 kts 288°
2026-05-05 14:57 52.18448 -5.97184 38066 ft 475 kts 288°
2026-05-05 14:58 52.20493 -6.07449 38058 ft 477 kts 288°
2026-05-05 14:58 52.22529 -6.17740 38059 ft 477 kts 288°
2026-05-05 14:59 52.24326 -6.28149 38056 ft 477 kts 283°
2026-05-05 14:59 52.25706 -6.38732 38057 ft 477 kts 282°
2026-05-05 15:00 52.26798 -6.47556 38064 ft 477 kts 281°
2026-05-05 15:00 52.28310 -6.59950 38066 ft 476 kts 281°
2026-05-05 15:01 52.29601 -6.70561 38061 ft 476 kts 281°
2026-05-05 15:01 52.30879 -6.81108 38067 ft 476 kts 281°
2026-05-05 15:02 52.32156 -6.91727 38073 ft 476 kts 281°
2026-05-05 15:02 52.33422 -7.02340 38073 ft 475 kts 281°
2026-05-05 15:03 52.34675 -7.12942 38072 ft 475 kts 281°
2026-05-05 15:03 52.35919 -7.23549 38068 ft 475 kts 281°
2026-05-05 15:04 52.37153 -7.34152 38062 ft 475 kts 281°
2026-05-05 15:04 52.38379 -7.44773 38057 ft 475 kts 281°
2026-05-05 15:05 52.40198 -7.60701 38063 ft 475 kts 281°
2026-05-05 15:06 52.41399 -7.71334 38061 ft 475 kts 280°
2026-05-05 15:06 52.42590 -7.81967 38067 ft 475 kts 280°
2026-05-05 15:07 52.43772 -7.92606 38063 ft 475 kts 280°
2026-05-05 15:07 52.44944 -8.03249 38067 ft 475 kts 280°
2026-05-05 15:08 52.46106 -8.13890 38069 ft 474 kts 280°
2026-05-05 15:08 52.47249 -8.24457 38071 ft 474 kts 280°
2026-05-05 15:09 52.48399 -8.35174 38071 ft 474 kts 280°
2026-05-05 15:09 52.49524 -8.45754 38080 ft 474 kts 280°
2026-05-05 15:10 52.50646 -8.56409 38082 ft 474 kts 279°
2026-05-05 15:10 52.51759 -8.67062 38091 ft 473 kts 279°
2026-05-05 15:11 52.52861 -8.77710 38095 ft 473 kts 279°
2026-05-05 15:11 52.53954 -8.88372 38099 ft 473 kts 279°
2026-05-05 15:12 52.55037 -8.99035 38098 ft 473 kts 279°
2026-05-05 15:12 52.56111 -9.09711 38099 ft 473 kts 279°
2026-05-05 15:13 52.57174 -9.20379 38100 ft 473 kts 279°
2026-05-05 15:13 52.58228 -9.31053 38098 ft 473 kts 279°
2026-05-05 15:14 52.59272 -9.41738 38099 ft 473 kts 279°
2026-05-05 15:14 52.60307 -9.52429 38105 ft 473 kts 279°
2026-05-05 15:15 52.61332 -9.63117 38108 ft 473 kts 279°
2026-05-05 15:15 52.62346 -9.73798 38107 ft 472 kts 279°
2026-05-05 15:16 52.63349 -9.84468 38115 ft 471 kts 279°
2026-05-05 15:16 52.64341 -9.95128 38116 ft 471 kts 279°
2026-05-05 15:17 52.65323 -10.05798 38117 ft 471 kts 278°
2026-05-05 15:17 52.66297 -10.16476 38121 ft 471 kts 278°
2026-05-05 15:18 52.67260 -10.27151 38118 ft 471 kts 278°
2026-05-05 15:18 52.68215 -10.37839 38118 ft 471 kts 278°
2026-05-05 15:19 52.69154 -10.48467 38118 ft 471 kts 278°
2026-05-05 15:19 52.70095 -10.59234 38127 ft 471 kts 278°
2026-05-05 15:20 52.71015 -10.69867 38130 ft 471 kts 278°
2026-05-05 15:20 52.71930 -10.80568 38130 ft 471 kts 278°
2026-05-05 15:21 52.72836 -10.91273 38132 ft 471 kts 278°
2026-05-05 15:21 52.73732 -11.01987 38132 ft 471 kts 278°
2026-05-05 15:22 52.74619 -11.12695 38135 ft 471 kts 278°
2026-05-05 15:22 52.75496 -11.23419 38136 ft 471 kts 278°
2026-05-05 15:23 52.76364 -11.34143 38142 ft 471 kts 278°
2026-05-05 15:23 52.77221 -11.44868 38139 ft 471 kts 277°
2026-05-05 15:24 52.78069 -11.55604 38148 ft 471 kts 277°
2026-05-05 15:24 52.78908 -11.66346 38142 ft 471 kts 277°
2026-05-05 15:25 52.79736 -11.77084 38153 ft 472 kts 277°
2026-05-05 15:25 52.80556 -11.87837 38154 ft 472 kts 277°
2026-05-05 15:26 52.81365 -11.98588 38154 ft 472 kts 277°
2026-05-05 15:26 52.82160 -12.09280 38154 ft 472 kts 277°
2026-05-05 15:27 52.82950 -12.20043 38155 ft 471 kts 277°
2026-05-05 15:27 52.83730 -12.30793 38160 ft 471 kts 277°
2026-05-05 15:28 52.84500 -12.41555 38167 ft 471 kts 277°
2026-05-05 15:28 52.85260 -12.52310 38167 ft 471 kts 277°
2026-05-05 15:29 52.85889 -12.61325 38167 ft 471 kts 277°
2026-05-05 15:29 52.86631 -12.72094 38161 ft 471 kts 277°
2026-05-05 15:30 52.87481 -12.84605 38173 ft 470 kts 277°
2026-05-05 15:30 52.88080 -12.93545 38173 ft 470 kts 277°
2026-05-05 15:31 52.88796 -13.04376 38173 ft 470 kts 277°
2026-05-05 15:31 52.89495 -13.15082 38173 ft 470 kts 277°
2026-05-05 15:32 52.90187 -13.25851 38166 ft 470 kts 277°
2026-05-05 15:32 52.90870 -13.36630 38176 ft 471 kts 276°
2026-05-05 15:33 52.91544 -13.47417 38181 ft 471 kts 276°
2026-05-05 15:33 52.92208 -13.58211 38181 ft 471 kts 276°
2026-05-05 15:34 52.92863 -13.69008 38184 ft 471 kts 276°
2026-05-05 15:34 52.93507 -13.79804 38183 ft 471 kts 276°
2026-05-05 15:35 52.94142 -13.90612 38186 ft 471 kts 276°
2026-05-05 15:35 52.94767 -14.01419 38187 ft 471 kts 276°
2026-05-05 15:36 52.95383 -14.12236 38187 ft 471 kts 276°
2026-05-05 15:36 52.95984 -14.22979 38187 ft 471 kts 276°
2026-05-05 15:37 52.96580 -14.33803 38180 ft 471 kts 276°
2026-05-05 15:37 52.97166 -14.44627 38190 ft 471 kts 276°
2026-05-05 15:38 52.97742 -14.55448 38195 ft 471 kts 276°
2026-05-05 15:38 52.98309 -14.66277 38195 ft 471 kts 276°
2026-05-05 15:39 52.98865 -14.77105 38197 ft 471 kts 275°
2026-05-05 15:39 52.99412 -14.87943 38195 ft 471 kts 275°
2026-05-05 15:40 53.00129 -14.98741 38201 ft 471 kts 282°
2026-05-05 15:40 53.02035 -15.09109 38200 ft 470 kts 290°
2026-05-05 15:41 53.04297 -15.19308 38201 ft 470 kts 291°
2026-05-05 15:41 53.06606 -15.29483 38200 ft 471 kts 290°
2026-05-05 15:42 53.08894 -15.39678 38200 ft 471 kts 290°
2026-05-05 15:42 53.11156 -15.49887 38197 ft 470 kts 290°
2026-05-05 15:43 53.13408 -15.60120 38201 ft 470 kts 290°
2026-05-05 15:43 53.15650 -15.70362 38200 ft 471 kts 290°
2026-05-05 15:44 53.17883 -15.80608 38200 ft 471 kts 290°
2026-05-05 15:44 53.20109 -15.90873 38203 ft 471 kts 290°
2026-05-05 15:45 53.22325 -16.01143 38206 ft 471 kts 290°
2026-05-05 15:45 53.24534 -16.11432 38205 ft 471 kts 290°
2026-05-05 15:46 53.26733 -16.21726 38206 ft 471 kts 290°
2026-05-05 15:46 53.28924 -16.32032 38205 ft 471 kts 290°
2026-05-05 15:47 53.31106 -16.42352 38208 ft 471 kts 289°
2026-05-05 15:47 53.33279 -16.52682 38208 ft 471 kts 289°
2026-05-05 15:48 53.35443 -16.63021 38211 ft 471 kts 289°
2026-05-05 15:48 53.37596 -16.73363 38210 ft 470 kts 289°
2026-05-05 15:49 53.39742 -16.83722 38211 ft 470 kts 289°
2026-05-05 15:49 53.41875 -16.94072 38211 ft 470 kts 289°
2026-05-05 15:50 53.44003 -17.04450 38213 ft 470 kts 289°
2026-05-05 15:50 53.46119 -17.14828 38214 ft 470 kts 289°
2026-05-05 15:51 53.48227 -17.25220 38214 ft 470 kts 289°
2026-05-05 15:51 53.50326 -17.35620 38214 ft 470 kts 289°
2026-05-05 15:52 53.52413 -17.46017 38219 ft 470 kts 289°
2026-05-05 15:52 53.54492 -17.56428 38219 ft 470 kts 289°
2026-05-05 15:53 53.56560 -17.66844 38219 ft 470 kts 289°
2026-05-05 15:53 53.58622 -17.77280 38219 ft 470 kts 289°
2026-05-05 15:54 53.60673 -17.87718 38219 ft 470 kts 289°
2026-05-05 15:54 53.62715 -17.98169 38221 ft 470 kts 289°
2026-05-05 15:55 53.64747 -18.08627 38224 ft 470 kts 289°
2026-05-05 15:55 53.66761 -18.19045 38222 ft 470 kts 289°
2026-05-05 15:56 53.68780 -18.29544 38225 ft 471 kts 289°
2026-05-05 15:56 53.70788 -18.40048 38225 ft 471 kts 289°
2026-05-05 15:57 53.72788 -18.50567 38224 ft 471 kts 289°
2026-05-05 15:57 53.74779 -18.61100 38224 ft 471 kts 289°
2026-05-05 15:58 53.76762 -18.71644 38225 ft 471 kts 289°
2026-05-05 15:58 53.78735 -18.82196 38227 ft 471 kts 289°
2026-05-05 15:59 53.80701 -18.92774 38224 ft 472 kts 289°
2026-05-05 15:59 53.82660 -19.03370 38224 ft 472 kts 288°
2026-05-05 16:00 53.84610 -19.13977 38231 ft 472 kts 288°
2026-05-05 16:00 53.86549 -19.24591 38237 ft 472 kts 288°
2026-05-05 16:01 53.88482 -19.35227 38231 ft 472 kts 288°
2026-05-05 16:01 53.90393 -19.45806 38233 ft 472 kts 288°
2026-05-05 16:02 53.92308 -19.56470 38238 ft 473 kts 288°
2026-05-05 16:02 53.94215 -19.67148 38233 ft 473 kts 288°
2026-05-05 16:03 53.96112 -19.77835 38235 ft 473 kts 288°
2026-05-05 16:03 53.98003 -19.88550 38236 ft 473 kts 288°
2026-05-05 16:04 53.99741 -19.99333 38244 ft 474 kts 282°
2026-05-05 16:04 54.00469 -20.10487 38237 ft 476 kts 276°
2026-05-05 16:05 54.00935 -20.21715 38236 ft 476 kts 275°
2026-05-05 16:05 54.01350 -20.32951 38240 ft 476 kts 275°
2026-05-05 16:06 54.01766 -20.44194 38225 ft 476 kts 276°
2026-05-05 16:06 54.02183 -20.55426 38238 ft 476 kts 276°
2026-05-05 16:07 54.02594 -20.66654 38245 ft 476 kts 276°
2026-05-05 16:07 54.02995 -20.77902 38246 ft 476 kts 276°
2026-05-05 16:08 54.03384 -20.89140 38245 ft 476 kts 275°
2026-05-05 16:08 54.03763 -21.00390 38219 ft 476 kts 275°
2026-05-05 16:09 54.04131 -21.11638 38246 ft 476 kts 275°
2026-05-05 16:09 54.04488 -21.22881 38247 ft 476 kts 275°
2026-05-05 16:10 54.04836 -21.34131 38245 ft 476 kts 275°
2026-05-05 16:10 54.05172 -21.45376 38247 ft 476 kts 275°
2026-05-05 16:11 54.05498 -21.56624 38247 ft 476 kts 275°
2026-05-05 16:12 54.06119 -21.79144 38247 ft 476 kts 275°
2026-05-05 16:13 54.06836 -22.07309 38245 ft 476 kts 275°
2026-05-05 16:13 54.07105 -22.18575 38248 ft 476 kts 275°
2026-05-05 16:14 54.07608 -22.41039 38253 ft 476 kts 275°
2026-05-05 16:15 54.08072 -22.63593 38262 ft 476 kts 274°
2026-05-05 16:16 54.08460 -22.84328 38258 ft 477 kts 274°
2026-05-05 16:17 54.08750 -23.01167 38265 ft 477 kts 274°
2026-05-05 16:18 54.09017 -23.18110 38260 ft 477 kts 274°
2026-05-05 16:19 54.09261 -23.35051 38242 ft 477 kts 274°
2026-05-05 16:19 54.09480 -23.51988 38261 ft 476 kts 274°
2026-05-05 16:20 54.09736 -23.74562 38266 ft 477 kts 274°
2026-05-05 16:22 54.09996 -24.02785 38275 ft 476 kts 274°
2026-05-05 16:23 54.10157 -24.25335 38266 ft 476 kts 274°
2026-05-05 16:23 54.10250 -24.42261 38275 ft 476 kts 274°
2026-05-05 16:24 54.10298 -24.53553 38272 ft 476 kts 274°
2026-05-05 16:25 54.10351 -24.70379 38268 ft 476 kts 274°
2026-05-05 16:25 54.10381 -24.87279 38270 ft 475 kts 274°
2026-05-05 16:26 54.10384 -25.09818 38269 ft 476 kts 273°
2026-05-05 16:27 54.10369 -25.21078 38274 ft 475 kts 273°
2026-05-05 16:27 54.10344 -25.32333 38279 ft 475 kts 273°
2026-05-05 16:28 54.10309 -25.43585 38279 ft 475 kts 273°
2026-05-05 16:28 54.10263 -25.54845 38279 ft 476 kts 273°
2026-05-05 16:29 54.10207 -25.66120 38256 ft 476 kts 273°
2026-05-05 16:29 54.10139 -25.77400 38283 ft 476 kts 273°
2026-05-05 16:30 54.10061 -25.88670 38282 ft 476 kts 273°
2026-05-05 16:30 54.09973 -25.99943 38283 ft 476 kts 273°
2026-05-05 16:31 54.09875 -26.11212 38280 ft 476 kts 273°
2026-05-05 16:31 54.09765 -26.22492 38282 ft 476 kts 272°
2026-05-05 16:32 54.09646 -26.33684 38284 ft 476 kts 272°
2026-05-05 16:32 54.09516 -26.44946 38284 ft 475 kts 272°
2026-05-05 16:33 54.09375 -26.56211 38284 ft 476 kts 272°
2026-05-05 16:33 54.09224 -26.67477 38284 ft 476 kts 272°
2026-05-05 16:34 54.09063 -26.78737 38284 ft 476 kts 272°
2026-05-05 16:34 54.08890 -26.90011 38285 ft 476 kts 272°
2026-05-05 16:35 54.08708 -27.01276 38290 ft 476 kts 272°
2026-05-05 16:35 54.08515 -27.12536 38290 ft 476 kts 272°
2026-05-05 16:36 54.08311 -27.23798 38293 ft 476 kts 272°
2026-05-05 16:36 54.08096 -27.35064 38293 ft 476 kts 272°
2026-05-05 16:37 54.07872 -27.46329 38290 ft 476 kts 271°
2026-05-05 16:37 54.07636 -27.57574 38293 ft 475 kts 271°
2026-05-05 16:38 54.07393 -27.68737 38295 ft 475 kts 271°
2026-05-05 16:38 54.07137 -27.79971 38295 ft 475 kts 271°
2026-05-05 16:39 54.06870 -27.91210 38295 ft 475 kts 271°
2026-05-05 16:39 54.06594 -28.02445 38295 ft 475 kts 271°
2026-05-05 16:40 54.06307 -28.13681 38292 ft 475 kts 271°
2026-05-05 16:40 54.06009 -28.24916 38292 ft 475 kts 271°
2026-05-05 16:41 54.05700 -28.36151 38295 ft 475 kts 270°
2026-05-05 16:41 54.05381 -28.47385 38295 ft 475 kts 270°
2026-05-05 16:42 54.05052 -28.58614 38282 ft 475 kts 270°
2026-05-05 16:42 54.04713 -28.69830 38298 ft 474 kts 270°
2026-05-05 16:43 54.04363 -28.81040 38288 ft 474 kts 270°
2026-05-05 16:43 54.04003 -28.92237 38288 ft 474 kts 270°
2026-05-05 16:44 54.03633 -29.03446 38285 ft 474 kts 270°
2026-05-05 16:44 54.03252 -29.14645 38276 ft 474 kts 269°
2026-05-05 16:45 54.02862 -29.25839 38286 ft 474 kts 269°
2026-05-05 16:45 54.02461 -29.37022 38289 ft 474 kts 269°
2026-05-05 16:46 54.02049 -29.48204 38284 ft 474 kts 269°
2026-05-05 16:46 54.01626 -29.59395 38283 ft 474 kts 269°
2026-05-05 16:47 54.01194 -29.70576 38292 ft 474 kts 269°
2026-05-05 16:47 54.00752 -29.81758 38276 ft 475 kts 268°
2026-05-05 16:48 54.00298 -29.92963 38286 ft 475 kts 268°
2026-05-05 16:48 54.00209 -30.04082 38275 ft 473 kts 275°
2026-05-05 16:49 54.00600 -30.15245 38276 ft 473 kts 276°
2026-05-05 16:49 54.01056 -30.26394 38275 ft 473 kts 276°
2026-05-05 16:50 54.01507 -30.37545 38276 ft 474 kts 275°
2026-05-05 16:50 54.01939 -30.48743 38274 ft 475 kts 275°
2026-05-05 16:51 54.02353 -30.59954 38277 ft 475 kts 274°
2026-05-05 16:51 54.02757 -30.71163 38272 ft 475 kts 274°
2026-05-05 16:52 54.03151 -30.82388 38268 ft 475 kts 274°
2026-05-05 16:52 54.03535 -30.93604 38268 ft 475 kts 274°
2026-05-05 16:53 54.03910 -31.04830 38265 ft 475 kts 274°
2026-05-05 16:53 54.04272 -31.16037 38265 ft 474 kts 273°
2026-05-05 16:54 54.04624 -31.27231 38267 ft 474 kts 273°
2026-05-05 16:54 54.04966 -31.38442 38262 ft 474 kts 273°
2026-05-05 16:55 54.05296 -31.49626 38252 ft 474 kts 273°
2026-05-05 16:55 54.05617 -31.60843 38248 ft 474 kts 273°
2026-05-05 16:56 54.05928 -31.72029 38257 ft 474 kts 272°
2026-05-05 16:56 54.06227 -31.83239 38246 ft 475 kts 272°
2026-05-05 16:57 54.06517 -31.94447 38246 ft 473 kts 272°
2026-05-05 16:57 54.06794 -32.05583 38243 ft 475 kts 271°
2026-05-05 16:58 54.07063 -32.16801 38240 ft 473 kts 272°
2026-05-05 16:58 54.07323 -32.28023 38234 ft 476 kts 270°
2026-05-05 16:59 54.07572 -32.39318 38234 ft 477 kts 270°
2026-05-05 16:59 54.07810 -32.50616 38232 ft 478 kts 270°
2026-05-05 17:00 54.08040 -32.61931 38229 ft 478 kts 270°
2026-05-05 17:00 54.08258 -32.73232 38230 ft 477 kts 270°
2026-05-05 17:01 54.08464 -32.84535 38220 ft 478 kts 270°
2026-05-05 17:01 54.08661 -32.95851 38215 ft 479 kts 269°
2026-05-05 17:02 54.08848 -33.07227 38216 ft 481 kts 269°
2026-05-05 17:02 54.09025 -33.18631 38210 ft 482 kts 269°
2026-05-05 17:03 54.09192 -33.30037 38198 ft 482 kts 269°
2026-05-05 17:03 54.09347 -33.41435 38192 ft 481 kts 269°
2026-05-05 17:04 54.09492 -33.52837 38194 ft 481 kts 269°
2026-05-05 17:04 54.09604 -33.62325 38198 ft 483 kts 269°
2026-05-05 17:05 54.09730 -33.73841 38200 ft 484 kts 269°
2026-05-05 17:05 54.09844 -33.85297 38194 ft 483 kts 268°
2026-05-05 17:06 54.09947 -33.96678 38203 ft 483 kts 268°
2026-05-05 17:06 54.10040 -34.08128 38178 ft 484 kts 268°
2026-05-05 17:07 54.10122 -34.19607 38198 ft 485 kts 268°
2026-05-05 17:07 54.10193 -34.31097 38192 ft 485 kts 268°
2026-05-05 17:08 54.10253 -34.42568 38177 ft 485 kts 268°
2026-05-05 17:08 54.10302 -34.54049 38181 ft 485 kts 268°
2026-05-05 17:09 54.10340 -34.65535 38156 ft 484 kts 268°
2026-05-05 17:09 54.10367 -34.77016 38180 ft 484 kts 268°
2026-05-05 17:10 54.10384 -34.88490 38151 ft 484 kts 267°
2026-05-05 17:10 54.10390 -34.99976 38155 ft 486 kts 267°
2026-05-05 17:11 54.10384 -35.11504 38151 ft 486 kts 267°
2026-05-05 17:11 54.10367 -35.23022 38146 ft 486 kts 267°
2026-05-05 17:12 54.10340 -35.34479 38138 ft 486 kts 267°
2026-05-05 17:12 54.10301 -35.46002 38138 ft 486 kts 267°
2026-05-05 17:13 54.10252 -35.57522 38137 ft 486 kts 267°
2026-05-05 17:13 54.10191 -35.69041 38132 ft 486 kts 267°
2026-05-05 17:14 54.10120 -35.80567 38132 ft 486 kts 266°
2026-05-05 17:14 54.10038 -35.92095 38126 ft 487 kts 266°
2026-05-05 17:15 54.09944 -36.03647 38122 ft 488 kts 266°
2026-05-05 17:15 54.09839 -36.15223 38128 ft 488 kts 266°
2026-05-05 17:16 54.09724 -36.26793 38118 ft 488 kts 266°
2026-05-05 17:16 54.09597 -36.38351 38113 ft 488 kts 266°
2026-05-05 17:17 54.09459 -36.49912 38113 ft 488 kts 266°
2026-05-05 17:17 54.09310 -36.61469 38113 ft 488 kts 266°
2026-05-05 17:18 54.09149 -36.73024 38110 ft 488 kts 266°
2026-05-05 17:18 54.08978 -36.84578 38111 ft 489 kts 265°
2026-05-05 17:19 54.08795 -36.96173 38101 ft 490 kts 265°
2026-05-05 17:19 54.08601 -37.07765 38110 ft 490 kts 265°
2026-05-05 17:20 54.08395 -37.19354 38103 ft 490 kts 265°
2026-05-05 17:20 54.08179 -37.30941 38104 ft 490 kts 265°
2026-05-05 17:21 54.07953 -37.42447 38118 ft 489 kts 265°
2026-05-05 17:22 54.07592 -37.59792 38110 ft 488 kts 265°
2026-05-05 17:22 54.07337 -37.71334 38125 ft 488 kts 265°
2026-05-05 17:23 54.07070 -37.82908 38105 ft 490 kts 265°
2026-05-05 17:23 54.06792 -37.94503 38104 ft 490 kts 264°
2026-05-05 17:24 54.06503 -38.06106 38123 ft 490 kts 264°
2026-05-05 17:24 54.06204 -38.17671 38114 ft 488 kts 264°
2026-05-05 17:25 54.05895 -38.29200 38096 ft 488 kts 264°
2026-05-05 17:25 54.05573 -38.40734 38101 ft 488 kts 264°
2026-05-05 17:26 54.05241 -38.52259 38113 ft 488 kts 264°
2026-05-05 17:26 54.04898 -38.63789 38109 ft 488 kts 264°
2026-05-05 17:27 54.04544 -38.75339 38112 ft 489 kts 264°
2026-05-05 17:27 54.04178 -38.86892 38105 ft 489 kts 264°
2026-05-05 17:28 54.03801 -38.98445 38105 ft 489 kts 263°
2026-05-05 17:28 54.03413 -39.09998 38105 ft 489 kts 263°
2026-05-05 17:29 54.03014 -39.21541 38100 ft 489 kts 263°
2026-05-05 17:29 54.02604 -39.33081 38124 ft 489 kts 263°
2026-05-05 17:30 54.02184 -39.44608 38100 ft 488 kts 263°
2026-05-05 17:30 54.01756 -39.56046 38109 ft 488 kts 263°
2026-05-05 17:31 54.01312 -39.67579 38100 ft 490 kts 263°
2026-05-05 17:31 54.00857 -39.79143 38099 ft 490 kts 263°
2026-05-05 17:32 54.00391 -39.90705 38097 ft 490 kts 263°
2026-05-05 17:32 53.99913 -40.02253 38083 ft 489 kts 263°
2026-05-05 17:33 53.99291 -40.13760 38102 ft 488 kts 261°
2026-05-05 17:33 53.98581 -40.25232 38086 ft 488 kts 261°
2026-05-05 17:34 53.97877 -40.36697 38090 ft 488 kts 261°
2026-05-05 17:34 53.97181 -40.48168 38093 ft 488 kts 261°
2026-05-05 17:35 53.96480 -40.59657 38085 ft 490 kts 261°
2026-05-05 17:35 53.95766 -40.71176 38080 ft 490 kts 261°
2026-05-05 17:36 53.95041 -40.82685 38080 ft 490 kts 261°
2026-05-05 17:36 53.94304 -40.94188 38081 ft 490 kts 261°
2026-05-05 17:37 53.93557 -41.05685 38069 ft 490 kts 260°
2026-05-05 17:37 53.92798 -41.17172 38070 ft 490 kts 260°
2026-05-05 17:38 53.92029 -41.28656 38071 ft 489 kts 260°
2026-05-05 17:38 53.91251 -41.40103 38069 ft 488 kts 260°
2026-05-05 17:39 53.90461 -41.51559 38058 ft 490 kts 260°
2026-05-05 17:39 53.89658 -41.63035 38058 ft 490 kts 260°
2026-05-05 17:40 53.88850 -41.74436 38057 ft 490 kts 260°
2026-05-05 17:40 53.88020 -41.85983 38061 ft 490 kts 260°
2026-05-05 17:41 53.87185 -41.97443 38045 ft 490 kts 260°
2026-05-05 17:41 53.86345 -42.08819 38045 ft 490 kts 259°
2026-05-05 17:42 53.85488 -42.20268 38042 ft 490 kts 259°
2026-05-05 17:42 53.84621 -42.31705 38034 ft 490 kts 259°
2026-05-05 17:43 53.83743 -42.43145 38036 ft 490 kts 259°
2026-05-05 17:43 53.82854 -42.54575 38026 ft 490 kts 259°
2026-05-05 17:44 53.81954 -42.65993 38026 ft 490 kts 259°
2026-05-05 17:44 53.81044 -42.77410 38018 ft 489 kts 259°
2026-05-05 17:45 53.80123 -42.88818 38018 ft 489 kts 259°
2026-05-05 17:45 53.79191 -43.00222 38015 ft 489 kts 259°
2026-05-05 17:46 53.78249 -43.11614 38017 ft 489 kts 259°
2026-05-05 17:46 53.77298 -43.22982 38010 ft 488 kts 259°
2026-05-05 17:47 53.76336 -43.34334 38006 ft 489 kts 259°
2026-05-05 17:47 53.75360 -43.45728 37998 ft 490 kts 259°
2026-05-05 17:48 53.74372 -43.57127 37999 ft 490 kts 258°
2026-05-05 17:48 53.73375 -43.68506 38000 ft 490 kts 258°
2026-05-05 17:49 53.72367 -43.79888 37986 ft 489 kts 258°
2026-05-05 17:49 53.71349 -43.91249 37984 ft 489 kts 258°
2026-05-05 17:50 53.70322 -44.02594 37978 ft 489 kts 258°
2026-05-05 17:50 53.69283 -44.13938 37969 ft 489 kts 258°
2026-05-05 17:51 53.68234 -44.25266 37959 ft 489 kts 258°
2026-05-05 17:51 53.67180 -44.36524 37967 ft 489 kts 258°
2026-05-05 17:52 53.66109 -44.47848 37944 ft 489 kts 258°
2026-05-05 17:52 53.65028 -44.59168 37950 ft 489 kts 258°
2026-05-05 17:53 53.63936 -44.70476 37947 ft 489 kts 258°
2026-05-05 17:53 53.63022 -44.79863 37936 ft 489 kts 258°
2026-05-05 17:54 53.61911 -44.91153 37953 ft 489 kts 258°
2026-05-05 17:54 53.60792 -45.02423 37930 ft 487 kts 258°
2026-05-05 17:55 53.59665 -45.13657 37932 ft 486 kts 257°
2026-05-05 17:55 53.58525 -45.24901 37916 ft 488 kts 257°
2026-05-05 17:56 53.57373 -45.36149 37915 ft 488 kts 257°
2026-05-05 17:56 53.56212 -45.47397 37908 ft 488 kts 258°
2026-05-05 17:57 53.55041 -45.58627 37896 ft 487 kts 257°
2026-05-05 17:57 53.53862 -45.69830 37897 ft 486 kts 257°
2026-05-05 17:58 53.52673 -45.81010 37895 ft 486 kts 257°
2026-05-05 17:58 53.51476 -45.92179 37878 ft 485 kts 257°
2026-05-05 17:59 53.50267 -46.03348 37877 ft 486 kts 257°
2026-05-05 17:59 53.49046 -46.14504 37866 ft 487 kts 257°
2026-05-05 18:00 53.47818 -46.25650 37882 ft 485 kts 257°
2026-05-05 18:00 53.46579 -46.36780 37860 ft 484 kts 257°
2026-05-05 18:01 53.45331 -46.47886 37858 ft 485 kts 257°
2026-05-05 18:01 53.44074 -46.58990 37851 ft 485 kts 257°
2026-05-05 18:02 53.42807 -46.70094 37846 ft 484 kts 257°
2026-05-05 18:02 53.41529 -46.81184 37847 ft 485 kts 256°
2026-05-05 18:03 53.40241 -46.92262 37854 ft 485 kts 256°
2026-05-05 18:03 53.38944 -47.03330 37841 ft 484 kts 257°
2026-05-05 18:04 53.37630 -47.14438 37826 ft 486 kts 256°
2026-05-05 18:04 53.36307 -47.25530 37827 ft 486 kts 256°
2026-05-05 18:05 53.34974 -47.36623 37821 ft 485 kts 257°
2026-05-05 18:05 53.33634 -47.47676 37820 ft 484 kts 256°
2026-05-05 18:06 53.32285 -47.58718 37811 ft 484 kts 256°
2026-05-05 18:06 53.30926 -47.69737 37814 ft 484 kts 256°
2026-05-05 18:07 53.29567 -47.80674 37800 ft 484 kts 256°
2026-05-05 18:07 53.28187 -47.91685 37818 ft 484 kts 256°
2026-05-05 18:08 53.26796 -48.02701 37796 ft 485 kts 256°
2026-05-05 18:08 53.25400 -48.13692 37790 ft 484 kts 256°
2026-05-05 18:09 53.23992 -48.24667 37786 ft 483 kts 256°
2026-05-05 18:09 53.22574 -48.35646 37781 ft 483 kts 256°
2026-05-05 18:10 53.21146 -48.46603 37772 ft 484 kts 255°
2026-05-05 18:10 53.19709 -48.57557 37769 ft 483 kts 256°
2026-05-05 18:11 53.18267 -48.68467 37773 ft 482 kts 256°
2026-05-05 18:11 53.16811 -48.79380 37768 ft 482 kts 256°
2026-05-05 18:12 53.15346 -48.90290 37759 ft 484 kts 255°
2026-05-05 18:12 53.13868 -49.01212 37752 ft 484 kts 255°
2026-05-05 18:13 53.12380 -49.12139 37754 ft 482 kts 256°
2026-05-05 18:13 53.10886 -49.23029 37742 ft 482 kts 256°
2026-05-05 18:14 53.09384 -49.33895 37741 ft 482 kts 255°
2026-05-05 18:14 53.07873 -49.44740 37742 ft 482 kts 255°
2026-05-05 18:15 53.06363 -49.55502 37728 ft 481 kts 255°
2026-05-05 18:15 53.04833 -49.66329 37729 ft 481 kts 255°
2026-05-05 18:16 53.03294 -49.77139 37726 ft 481 kts 255°
2026-05-05 18:16 53.01748 -49.87928 37715 ft 481 kts 255°
2026-05-05 18:17 53.00138 -49.98692 37709 ft 479 kts 252°
2026-05-05 18:17 52.97851 -50.09081 37707 ft 479 kts 248°
2026-05-05 18:18 52.95391 -50.19358 37708 ft 479 kts 247°
2026-05-05 18:18 52.92896 -50.29605 37706 ft 479 kts 247°
2026-05-05 18:19 52.90403 -50.39826 37702 ft 478 kts 247°
2026-05-05 18:19 52.87912 -50.50032 37697 ft 479 kts 247°
2026-05-05 18:20 52.85431 -50.60165 37704 ft 478 kts 247°
2026-05-05 18:20 52.82926 -50.70349 37706 ft 478 kts 248°
2026-05-05 18:21 52.80412 -50.80524 37689 ft 478 kts 248°
2026-05-05 18:21 52.77882 -50.90708 37688 ft 479 kts 248°
2026-05-05 18:22 52.75341 -51.00892 37686 ft 479 kts 247°
2026-05-05 18:22 52.72792 -51.11059 37687 ft 479 kts 247°
2026-05-05 18:23 52.70234 -51.21214 37680 ft 480 kts 248°
2026-05-05 18:23 52.67667 -51.31363 37680 ft 480 kts 248°
2026-05-05 18:24 52.65094 -51.41488 37683 ft 479 kts 247°
2026-05-05 18:24 52.62513 -51.51601 37678 ft 479 kts 247°
2026-05-05 18:25 52.59924 -51.61700 37678 ft 479 kts 247°
2026-05-05 18:25 52.57325 -51.71790 37669 ft 479 kts 247°
2026-05-05 18:26 52.54724 -51.81842 37670 ft 478 kts 247°
2026-05-05 18:26 52.52135 -51.91805 37669 ft 478 kts 247°
2026-05-05 18:27 52.49518 -52.01832 37670 ft 477 kts 247°
2026-05-05 18:27 52.46894 -52.11839 37655 ft 477 kts 247°
2026-05-05 18:28 52.42943 -52.26826 37663 ft 478 kts 247°
2026-05-05 18:28 52.40298 -52.36805 37664 ft 478 kts 247°
2026-05-05 18:29 52.37645 -52.46768 37664 ft 477 kts 246°
2026-05-05 18:29 52.34980 -52.56735 37664 ft 477 kts 246°
2026-05-05 18:30 52.32310 -52.66677 37665 ft 477 kts 246°
2026-05-05 18:30 52.29637 -52.76584 37666 ft 476 kts 246°
2026-05-05 18:31 52.26959 -52.86471 37667 ft 476 kts 246°
2026-05-05 18:31 52.24271 -52.96350 37660 ft 476 kts 246°
2026-05-05 18:32 52.21576 -53.06216 37664 ft 477 kts 246°
2026-05-05 18:32 52.18869 -53.16080 37664 ft 476 kts 246°
2026-05-05 18:33 52.16160 -53.25912 37667 ft 476 kts 246°
2026-05-05 18:33 52.13459 -53.35673 37666 ft 476 kts 246°
2026-05-05 18:34 52.10734 -53.45477 37664 ft 476 kts 246°
2026-05-05 18:34 52.08001 -53.55274 37664 ft 476 kts 246°
2026-05-05 18:35 52.05262 -53.65046 37667 ft 474 kts 246°
2026-05-05 18:35 52.02524 -53.74774 37667 ft 473 kts 246°
2026-05-05 18:36 51.99778 -53.84494 37664 ft 473 kts 246°
2026-05-05 18:36 51.97026 -53.94194 37666 ft 473 kts 246°
2026-05-05 18:37 51.94267 -54.03879 37664 ft 473 kts 246°
2026-05-05 18:37 51.91502 -54.13542 37672 ft 472 kts 246°
2026-05-05 18:38 51.88732 -54.23185 37661 ft 472 kts 246°
2026-05-05 18:38 51.85954 -54.32818 37670 ft 472 kts 246°
2026-05-05 18:39 51.83168 -54.42440 37670 ft 472 kts 246°
2026-05-05 18:39 51.80349 -54.52026 37673 ft 473 kts 243°
2026-05-05 18:40 51.77039 -54.61226 37677 ft 474 kts 240°
2026-05-05 18:40 51.73602 -54.70314 37675 ft 474 kts 240°
2026-05-05 18:41 51.70137 -54.79377 37675 ft 474 kts 240°
2026-05-05 18:41 51.66676 -54.88423 37665 ft 474 kts 240°
2026-05-05 18:42 51.63797 -54.95937 37681 ft 474 kts 240°
2026-05-05 18:42 51.60335 -55.04954 37684 ft 474 kts 240°
2026-05-05 18:43 51.56865 -55.13960 37680 ft 474 kts 240°
2026-05-05 18:43 51.53390 -55.22944 37672 ft 473 kts 240°
2026-05-05 18:44 51.49926 -55.31868 37673 ft 471 kts 240°
2026-05-05 18:44 51.46466 -55.40751 37673 ft 469 kts 240°
2026-05-05 18:45 51.43006 -55.49604 37673 ft 468 kts 240°
2026-05-05 18:45 51.39544 -55.58435 37833 ft 467 kts 240°
2026-05-05 18:46 51.37816 -55.62829 38084 ft 466 kts 240°
2026-05-05 18:46 51.36091 -55.67209 38303 ft 465 kts 240°
2026-05-05 18:46 51.34373 -55.71562 38572 ft 460 kts 240°
2026-05-05 18:46 51.32666 -55.75882 38776 ft 459 kts 240°
2026-05-05 18:47 51.29249 -55.84510 38976 ft 460 kts 240°
2026-05-05 18:47 51.25817 -55.93146 39172 ft 461 kts 240°
2026-05-05 18:48 51.22375 -56.01776 39377 ft 461 kts 239°
2026-05-05 18:48 51.18955 -56.10322 39617 ft 459 kts 239°
2026-05-05 18:49 51.15479 -56.18981 39649 ft 462 kts 239°
2026-05-05 18:49 51.12010 -56.27592 39643 ft 462 kts 239°
2026-05-05 18:50 51.08558 -56.36133 39664 ft 462 kts 239°
2026-05-05 18:50 51.05080 -56.44710 39661 ft 462 kts 239°
2026-05-05 18:51 51.01593 -56.53281 39669 ft 463 kts 238°
2026-05-05 18:51 50.98093 -56.61856 39668 ft 463 kts 238°
2026-05-05 18:52 50.94584 -56.70426 39673 ft 463 kts 238°
2026-05-05 18:52 50.91071 -56.78976 39673 ft 463 kts 238°
2026-05-05 18:53 50.87553 -56.87508 39682 ft 462 kts 238°
2026-05-05 18:53 50.84035 -56.96011 39691 ft 462 kts 238°
2026-05-05 18:54 50.80506 -57.04519 39695 ft 463 kts 238°
2026-05-05 18:54 50.76975 -57.13003 39704 ft 462 kts 238°
2026-05-05 18:55 50.73438 -57.21469 39706 ft 462 kts 238°
2026-05-05 18:55 50.69873 -57.29980 39720 ft 467 kts 238°
2026-05-05 18:56 50.67047 -57.36706 39719 ft 468 kts 238°
2026-05-05 18:56 50.63452 -57.45238 39734 ft 467 kts 238°
2026-05-05 18:57 50.59850 -57.53752 39741 ft 467 kts 238°
2026-05-05 18:57 50.56265 -57.62200 39747 ft 468 kts 238°
2026-05-05 18:58 50.52650 -57.70697 39787 ft 468 kts 238°
2026-05-05 18:58 50.49025 -57.79188 39771 ft 469 kts 238°
2026-05-05 18:59 50.45386 -57.87682 39775 ft 469 kts 238°
2026-05-05 18:59 50.41741 -57.96163 39772 ft 468 kts 238°
2026-05-05 19:00 50.38101 -58.04605 39788 ft 467 kts 238°
2026-05-05 19:00 50.34457 -58.13031 39789 ft 467 kts 238°
2026-05-05 19:01 50.30811 -58.21435 39784 ft 467 kts 238°
2026-05-05 19:01 50.27155 -58.29834 39779 ft 467 kts 238°
2026-05-05 19:02 50.23495 -58.38215 39788 ft 466 kts 237°
2026-05-05 19:02 50.19836 -58.46568 39794 ft 466 kts 237°
2026-05-05 19:03 50.16171 -58.54908 39796 ft 466 kts 237°
2026-05-05 19:03 50.12499 -58.63237 39804 ft 466 kts 237°
2026-05-05 19:04 50.08823 -58.71548 39799 ft 465 kts 237°
2026-05-05 19:04 50.05147 -58.79835 39799 ft 465 kts 237°
2026-05-05 19:05 50.01467 -58.88103 39801 ft 465 kts 237°
2026-05-05 19:05 49.97777 -58.96371 39810 ft 466 kts 237°
2026-05-05 19:06 49.94076 -59.04634 39807 ft 466 kts 237°
2026-05-05 19:06 49.90373 -59.12877 39809 ft 465 kts 237°
2026-05-05 19:07 49.86668 -59.21098 39804 ft 465 kts 237°
2026-05-05 19:07 49.82956 -59.29311 39807 ft 465 kts 237°
2026-05-05 19:08 49.79238 -59.37511 39806 ft 465 kts 237°
2026-05-05 19:08 49.75522 -59.45681 39813 ft 464 kts 237°
2026-05-05 19:09 49.71805 -59.53829 39809 ft 464 kts 237°
2026-05-05 19:09 49.68079 -59.61972 39807 ft 464 kts 237°
2026-05-05 19:10 49.64352 -59.70091 39798 ft 463 kts 237°
2026-05-05 19:10 49.60657 -59.78114 39810 ft 460 kts 237°
2026-05-05 19:11 49.56951 -59.86138 39810 ft 459 kts 237°
2026-05-05 19:11 49.53240 -59.94150 39809 ft 459 kts 237°
2026-05-05 19:12 49.49526 -60.02146 39809 ft 459 kts 237°
2026-05-05 19:12 49.45808 -60.10123 39811 ft 458 kts 237°
2026-05-05 19:13 49.42103 -60.18051 39807 ft 456 kts 237°
2026-05-05 19:13 49.38403 -60.25944 39810 ft 455 kts 237°
2026-05-05 19:14 49.34699 -60.33823 39810 ft 455 kts 237°
2026-05-05 19:14 49.30996 -60.41676 39810 ft 452 kts 237°
2026-05-05 19:15 49.27313 -60.49458 39813 ft 450 kts 237°
2026-05-05 19:15 49.23637 -60.57211 39805 ft 450 kts 237°
2026-05-05 19:16 49.19957 -60.64948 39806 ft 450 kts 237°
2026-05-05 19:16 49.16272 -60.72672 39796 ft 449 kts 237°
2026-05-05 19:17 49.12591 -60.80365 39805 ft 448 kts 237°
2026-05-05 19:17 49.08915 -60.88027 39804 ft 447 kts 237°
2026-05-05 19:18 49.05232 -60.95681 39793 ft 447 kts 237°
2026-05-05 19:18 49.01572 -61.03266 39782 ft 447 kts 236°
2026-05-05 19:19 48.97884 -61.10888 39793 ft 446 kts 236°
2026-05-05 19:19 48.94198 -61.18483 39795 ft 446 kts 236°
2026-05-05 19:20 48.90511 -61.26059 39793 ft 445 kts 236°
2026-05-05 19:20 48.86822 -61.33617 39793 ft 445 kts 236°
2026-05-05 19:21 48.83127 -61.41169 39785 ft 445 kts 236°
2026-05-05 19:21 48.79431 -61.48699 39782 ft 445 kts 236°
2026-05-05 19:22 48.75724 -61.56232 39779 ft 446 kts 235°
2026-05-05 19:22 48.72015 -61.63747 39779 ft 446 kts 235°
2026-05-05 19:23 48.68297 -61.71259 39777 ft 446 kts 235°
2026-05-05 19:23 48.64568 -61.78773 39778 ft 447 kts 235°
2026-05-05 19:24 48.60833 -61.86278 39766 ft 447 kts 235°
2026-05-05 19:24 48.57088 -61.93780 39767 ft 447 kts 235°
2026-05-05 19:25 48.53339 -62.01271 39749 ft 447 kts 235°
2026-05-05 19:25 48.49586 -62.08748 39766 ft 447 kts 235°
2026-05-05 19:26 48.45828 -62.16216 39763 ft 447 kts 235°
2026-05-05 19:26 48.42065 -62.23673 39768 ft 447 kts 234°
2026-05-05 19:27 48.38323 -62.31069 39756 ft 447 kts 234°
2026-05-05 19:27 48.34558 -62.38486 39751 ft 445 kts 234°
2026-05-05 19:28 48.30805 -62.45862 39752 ft 444 kts 234°
2026-05-05 19:28 48.27049 -62.53224 39752 ft 444 kts 234°
2026-05-05 19:29 48.23291 -62.60570 39752 ft 444 kts 234°
2026-05-05 19:29 48.19530 -62.67902 39737 ft 443 kts 234°
2026-05-05 19:30 48.15767 -62.75217 39735 ft 443 kts 234°
2026-05-05 19:30 48.12639 -62.81282 39733 ft 442 kts 234°
2026-05-05 19:31 48.08875 -62.88565 39733 ft 442 kts 234°
2026-05-05 19:31 48.05107 -62.95835 39747 ft 442 kts 234°
2026-05-05 19:32 48.01332 -63.03099 39746 ft 442 kts 234°
2026-05-05 19:32 47.97558 -63.10340 39715 ft 442 kts 234°
2026-05-05 19:33 47.93778 -63.17574 39733 ft 442 kts 234°
2026-05-05 19:33 47.89992 -63.24801 39729 ft 442 kts 234°
2026-05-05 19:34 47.86205 -63.32011 39712 ft 442 kts 234°
2026-05-05 19:35 47.80515 -63.42808 39710 ft 442 kts 234°
2026-05-05 19:35 47.76717 -63.49991 39715 ft 442 kts 233°
2026-05-05 19:36 47.72917 -63.57159 39707 ft 441 kts 234°
2026-05-05 19:36 47.69118 -63.64304 39709 ft 440 kts 233°
2026-05-05 19:37 47.65325 -63.71422 39714 ft 440 kts 233°
2026-05-05 19:37 47.61525 -63.78535 39715 ft 440 kts 233°
2026-05-05 19:38 47.57746 -63.85588 39699 ft 440 kts 233°
2026-05-05 19:38 47.53940 -63.92674 39716 ft 439 kts 233°
2026-05-05 19:39 47.50130 -63.99748 39717 ft 439 kts 233°
2026-05-05 19:39 47.46319 -64.06807 39717 ft 439 kts 233°
2026-05-05 19:40 47.42506 -64.13852 39689 ft 439 kts 233°
2026-05-05 19:40 47.38686 -64.20890 39716 ft 439 kts 233°
2026-05-05 19:41 47.34859 -64.27925 39716 ft 440 kts 233°
2026-05-05 19:41 47.30997 -64.35005 39710 ft 440 kts 233°
2026-05-05 19:42 47.27179 -64.41985 39716 ft 440 kts 233°
2026-05-05 19:42 47.23339 -64.48987 39718 ft 438 kts 233°
2026-05-05 19:43 47.19509 -64.55953 39718 ft 438 kts 233°
2026-05-05 19:43 47.15678 -64.62906 39725 ft 438 kts 233°
2026-05-05 19:44 47.11840 -64.69853 39710 ft 438 kts 233°
2026-05-05 19:44 47.08005 -64.76774 39711 ft 436 kts 233°
2026-05-05 19:45 47.04181 -64.83660 39715 ft 435 kts 233°
2026-05-05 19:45 47.00355 -64.90532 39715 ft 435 kts 233°
2026-05-05 19:46 46.96529 -64.97388 39719 ft 435 kts 233°
2026-05-05 19:46 46.92700 -65.04231 39713 ft 434 kts 233°
2026-05-05 19:47 46.88873 -65.11054 39720 ft 433 kts 233°
2026-05-05 19:47 46.85046 -65.17860 39728 ft 433 kts 233°
2026-05-05 19:48 46.81220 -65.24648 39726 ft 432 kts 233°
2026-05-05 19:48 46.77403 -65.31402 39735 ft 431 kts 233°
2026-05-05 19:49 46.73583 -65.38145 39736 ft 431 kts 233°
2026-05-05 19:49 46.69759 -65.44881 39733 ft 431 kts 233°
2026-05-05 19:50 46.65958 -65.51558 39736 ft 431 kts 233°
2026-05-05 19:50 46.62128 -65.58270 39727 ft 431 kts 233°
2026-05-05 19:51 46.58289 -65.64980 39744 ft 432 kts 233°
2026-05-05 19:51 46.54444 -65.71686 39744 ft 432 kts 233°
2026-05-05 19:52 46.50598 -65.78376 39732 ft 432 kts 233°
2026-05-05 19:52 46.46745 -65.85063 39734 ft 432 kts 232°
2026-05-05 19:53 46.42889 -65.91739 39736 ft 432 kts 232°
2026-05-05 19:53 46.39028 -65.98406 39737 ft 432 kts 232°
2026-05-05 19:54 46.35163 -66.05065 39744 ft 432 kts 232°
2026-05-05 19:54 46.31294 -66.11714 39745 ft 432 kts 232°
2026-05-05 19:55 46.27426 -66.18347 39739 ft 431 kts 232°
2026-05-05 19:55 46.23560 -66.24960 39735 ft 431 kts 232°
2026-05-05 19:56 46.19715 -66.31521 39743 ft 431 kts 232°
2026-05-05 19:56 46.15845 -66.38108 39740 ft 431 kts 232°
2026-05-05 19:57 46.11966 -66.44696 39739 ft 431 kts 232°
2026-05-05 19:57 46.08079 -66.51282 39726 ft 431 kts 232°
2026-05-05 19:58 46.04190 -66.57855 39725 ft 431 kts 232°
2026-05-05 19:58 46.00293 -66.64426 39729 ft 431 kts 232°
2026-05-05 19:59 45.96394 -66.70986 39734 ft 432 kts 232°
2026-05-05 19:59 45.92486 -66.77543 39736 ft 432 kts 232°
2026-05-05 20:00 45.88574 -66.84092 39735 ft 432 kts 232°
2026-05-05 20:00 45.84660 -66.90630 39735 ft 432 kts 231°
2026-05-05 20:01 45.80740 -66.97163 39739 ft 432 kts 231°
2026-05-05 20:01 45.76814 -67.03691 39749 ft 432 kts 231°
2026-05-05 20:02 45.72894 -67.10191 39744 ft 431 kts 231°
2026-05-05 20:02 45.68976 -67.16673 39750 ft 430 kts 231°
2026-05-05 20:03 45.65056 -67.23145 39740 ft 431 kts 231°
2026-05-05 20:03 45.61130 -67.29611 39741 ft 431 kts 231°
2026-05-05 20:04 45.57201 -67.36067 39751 ft 431 kts 231°
2026-05-05 20:04 45.53266 -67.42518 39749 ft 431 kts 231°
2026-05-05 20:05 45.49358 -67.48910 39756 ft 431 kts 231°
2026-05-05 20:05 45.45421 -67.55334 39752 ft 431 kts 231°
2026-05-05 20:06 45.41474 -67.61759 39749 ft 431 kts 231°
2026-05-05 20:06 45.37528 -67.68168 39759 ft 431 kts 231°
2026-05-05 20:07 45.33573 -67.74579 39762 ft 432 kts 231°
2026-05-05 20:07 45.29559 -67.80966 39763 ft 434 kts 230°
2026-05-05 20:08 45.25509 -67.87313 39787 ft 434 kts 230°
2026-05-05 20:08 45.21467 -67.93644 39768 ft 431 kts 230°
2026-05-05 20:09 45.17440 -67.99956 39773 ft 432 kts 230°
2026-05-05 20:09 45.13403 -68.06278 39779 ft 433 kts 230°
2026-05-05 20:10 45.09357 -68.12598 39780 ft 433 kts 230°
2026-05-05 20:10 45.05307 -68.18909 39781 ft 433 kts 230°
2026-05-05 20:11 45.01249 -68.25218 39785 ft 434 kts 230°
2026-05-05 20:11 44.97214 -68.31478 39784 ft 434 kts 230°
2026-05-05 20:12 44.93140 -68.37780 39795 ft 434 kts 230°
2026-05-05 20:12 44.89066 -68.44070 39766 ft 434 kts 230°
2026-05-05 20:13 44.84986 -68.50356 39775 ft 435 kts 230°
2026-05-05 20:13 44.80901 -68.56636 39760 ft 435 kts 230°
2026-05-05 20:14 44.76809 -68.62911 39755 ft 435 kts 230°
2026-05-05 20:14 44.72713 -68.69179 39754 ft 435 kts 230°
2026-05-05 20:15 44.68616 -68.75434 39755 ft 434 kts 230°
2026-05-05 20:15 44.64530 -68.81660 39761 ft 433 kts 230°
2026-05-05 20:16 44.60441 -68.87874 39766 ft 433 kts 229°
2026-05-05 20:16 44.56350 -68.94079 39764 ft 434 kts 229°
2026-05-05 20:17 44.52250 -69.00284 39768 ft 434 kts 229°
2026-05-05 20:17 44.48168 -69.06447 39782 ft 434 kts 229°
2026-05-05 20:18 44.44058 -69.12639 39785 ft 434 kts 229°
2026-05-05 20:18 44.39943 -69.18825 39783 ft 435 kts 229°
2026-05-05 20:19 44.35817 -69.25014 39776 ft 435 kts 229°
2026-05-05 20:19 44.31689 -69.31191 39786 ft 435 kts 229°
2026-05-05 20:20 44.27559 -69.37358 39795 ft 435 kts 229°
2026-05-05 20:20 44.23422 -69.43523 39795 ft 435 kts 229°
2026-05-05 20:21 44.19983 -69.48636 39803 ft 435 kts 229°
2026-05-05 20:21 44.15843 -69.54780 39794 ft 435 kts 229°
2026-05-05 20:22 44.11704 -69.60907 39783 ft 434 kts 229°
2026-05-05 20:22 44.07579 -69.67003 39794 ft 434 kts 229°
2026-05-05 20:23 44.03434 -69.73113 39797 ft 435 kts 229°
2026-05-05 20:23 43.99284 -69.79218 39796 ft 435 kts 229°
2026-05-05 20:24 43.95130 -69.85316 39794 ft 435 kts 229°
2026-05-05 20:24 43.90967 -69.91412 39794 ft 435 kts 229°
2026-05-05 20:25 43.86805 -69.97495 39798 ft 435 kts 229°
2026-05-05 20:25 43.82635 -70.03575 39802 ft 435 kts 229°
2026-05-05 20:26 43.78465 -70.09644 39796 ft 435 kts 229°
2026-05-05 20:26 43.74291 -70.15705 39769 ft 435 kts 229°
2026-05-05 20:27 43.70141 -70.21717 39745 ft 435 kts 229°
2026-05-05 20:27 43.65961 -70.27761 39759 ft 435 kts 229°
2026-05-05 20:28 43.61776 -70.33797 39773 ft 435 kts 229°
2026-05-05 20:28 43.57582 -70.39835 39768 ft 436 kts 229°
2026-05-05 20:29 43.53389 -70.45858 39767 ft 436 kts 229°
2026-05-05 20:29 43.49188 -70.51880 39748 ft 436 kts 228°
2026-05-05 20:30 43.44978 -70.57892 39747 ft 437 kts 228°
2026-05-05 20:30 43.42669 -70.60626 39748 ft 440 kts 217°
2026-05-05 20:30 43.39964 -70.62637 39754 ft 445 kts 205°
2026-05-05 20:31 43.34124 -70.65558 39747 ft 448 kts 204°
2026-05-05 20:31 43.28234 -70.68424 39745 ft 449 kts 204°
2026-05-05 20:32 43.22350 -70.71302 39751 ft 449 kts 204°
2026-05-05 20:32 43.16469 -70.74181 39741 ft 449 kts 204°
2026-05-05 20:33 43.10586 -70.77057 39738 ft 449 kts 204°
2026-05-05 20:33 43.04706 -70.79925 39739 ft 449 kts 204°
2026-05-05 20:34 42.98859 -70.82773 39738 ft 449 kts 204°
2026-05-05 20:34 42.92969 -70.85636 39748 ft 449 kts 204°
2026-05-05 20:35 42.87076 -70.88494 39793 ft 450 kts 204°
2026-05-05 20:35 42.81178 -70.91349 39789 ft 450 kts 204°
2026-05-05 20:36 42.75270 -70.94207 39788 ft 451 kts 204°
2026-05-05 20:36 42.69343 -70.97059 39787 ft 452 kts 204°
2026-05-05 20:37 42.63417 -70.99908 39804 ft 452 kts 204°
2026-05-05 20:37 42.57482 -71.02757 39802 ft 453 kts 204°
2026-05-05 20:38 42.51544 -71.05602 39803 ft 453 kts 204°
2026-05-05 20:38 42.45603 -71.08442 39815 ft 453 kts 204°
2026-05-05 20:39 42.39655 -71.11280 39813 ft 453 kts 203°
2026-05-05 20:39 42.33701 -71.14115 39816 ft 454 kts 203°
2026-05-05 20:40 42.27744 -71.16945 39852 ft 454 kts 203°
2026-05-05 20:40 42.21779 -71.19774 39750 ft 455 kts 203°
2026-05-05 20:40 42.18806 -71.21181 39518 ft 451 kts 203°
2026-05-05 20:41 42.15886 -71.22561 39293 ft 450 kts 203°
2026-05-05 20:41 42.12937 -71.23955 39066 ft 449 kts 203°
2026-05-05 20:41 42.09995 -71.25344 38839 ft 449 kts 203°
2026-05-05 20:41 42.07054 -71.26732 38602 ft 448 kts 203°
2026-05-05 20:42 42.04105 -71.28122 38332 ft 448 kts 203°
2026-05-05 20:42 42.01159 -71.29509 38049 ft 449 kts 203°
2026-05-05 20:42 41.98206 -71.30898 37766 ft 450 kts 203°
2026-05-05 20:42 41.95244 -71.32290 37482 ft 451 kts 203°
2026-05-05 20:43 41.92276 -71.33683 37213 ft 453 kts 203°
2026-05-05 20:43 41.89301 -71.35079 36942 ft 454 kts 203°
2026-05-05 20:43 41.86306 -71.36482 36652 ft 457 kts 202°
2026-05-05 20:43 41.83302 -71.37888 36403 ft 459 kts 202°
2026-05-05 20:44 41.80279 -71.39301 36149 ft 460 kts 202°
2026-05-05 20:44 41.77256 -71.40713 35886 ft 461 kts 202°
2026-05-05 20:44 41.74253 -71.42229 35620 ft 460 kts 207°
2026-05-05 20:44 41.71457 -71.44251 35376 ft 455 kts 217°
2026-05-05 20:45 41.66530 -71.49506 34883 ft 452 kts 223°
2026-05-05 20:45 41.64126 -71.52211 34651 ft 451 kts 223°
2026-05-05 20:45 41.61726 -71.54902 34416 ft 450 kts 223°
2026-05-05 20:46 41.59326 -71.57584 34175 ft 449 kts 223°
2026-05-05 20:46 41.56934 -71.60251 33927 ft 447 kts 223°
2026-05-05 20:46 41.54549 -71.62906 33664 ft 446 kts 223°
2026-05-05 20:46 41.52182 -71.65536 33369 ft 438 kts 223°
2026-05-05 20:47 41.49852 -71.68120 32946 ft 432 kts 223°
2026-05-05 20:47 41.47559 -71.70663 32499 ft 426 kts 223°
2026-05-05 20:47 41.45322 -71.73142 32050 ft 421 kts 223°
2026-05-05 20:47 41.43052 -71.75655 31602 ft 416 kts 223°
2026-05-05 20:48 41.40836 -71.78105 31162 ft 412 kts 223°
2026-05-05 20:48 41.38643 -71.80529 30696 ft 408 kts 223°
2026-05-05 20:48 41.36469 -71.82930 30282 ft 405 kts 223°
2026-05-05 20:48 41.34301 -71.85322 29815 ft 404 kts 223°
2026-05-05 20:49 41.32139 -71.87705 29373 ft 402 kts 223°
2026-05-05 20:49 41.30019 -71.90040 28934 ft 399 kts 223°
2026-05-05 20:49 41.27896 -71.92376 28478 ft 394 kts 223°
2026-05-05 20:49 41.25798 -71.94687 28039 ft 389 kts 223°
2026-05-05 20:50 41.23723 -71.96963 27617 ft 384 kts 223°
2026-05-05 20:50 41.21671 -71.99211 27202 ft 381 kts 223°
2026-05-05 20:50 41.19636 -72.01441 26777 ft 378 kts 223°
2026-05-05 20:50 41.17616 -72.03654 26359 ft 375 kts 223°
2026-05-05 20:51 41.15607 -72.05853 25939 ft 373 kts 223°
2026-05-05 20:51 41.13615 -72.08032 25520 ft 370 kts 223°
2026-05-05 20:51 41.11659 -72.10236 25100 ft 366 kts 226°
2026-05-05 20:51 41.10046 -72.12785 24696 ft 358 kts 240°
2026-05-05 20:52 41.08993 -72.15731 24280 ft 352 kts 252°
2026-05-05 20:52 41.08222 -72.18790 23873 ft 349 kts 253°
2026-05-05 20:52 41.07483 -72.21840 23460 ft 347 kts 253°
2026-05-05 20:52 41.06744 -72.24868 23011 ft 344 kts 252°
2026-05-05 20:53 41.06005 -72.27871 22614 ft 341 kts 253°
2026-05-05 20:53 41.05269 -72.30847 22195 ft 339 kts 253°
2026-05-05 20:53 41.04536 -72.33802 21790 ft 336 kts 252°
2026-05-05 20:53 41.03808 -72.36733 21387 ft 334 kts 252°
2026-05-05 20:54 41.03083 -72.39643 20981 ft 332 kts 252°
2026-05-05 20:54 41.02362 -72.42534 20589 ft 330 kts 252°
2026-05-05 20:54 41.01642 -72.45413 20192 ft 328 kts 252°
2026-05-05 20:54 41.00928 -72.48270 19798 ft 326 kts 252°
2026-05-05 20:55 41.00217 -72.51107 19426 ft 324 kts 252°
2026-05-05 20:55 40.99511 -72.53924 19017 ft 321 kts 252°
2026-05-05 20:55 40.98808 -72.56722 18620 ft 319 kts 252°
2026-05-05 20:55 40.98110 -72.59497 18228 ft 317 kts 251°
2026-05-05 20:56 40.97414 -72.62262 17823 ft 316 kts 252°
2026-05-05 20:56 40.96720 -72.65014 17412 ft 315 kts 252°
2026-05-05 20:56 40.96030 -72.67747 17114 ft 313 kts 252°
2026-05-05 20:56 40.95343 -72.70467 16753 ft 311 kts 252°
2026-05-05 20:57 40.94661 -72.73165 16375 ft 308 kts 252°
2026-05-05 20:57 40.93983 -72.75842 16000 ft 306 kts 252°
2026-05-05 20:57 40.93205 -72.78445 15587 ft 304 kts 244°
2026-05-05 20:57 40.91966 -72.80710 15214 ft 306 kts 227°
2026-05-05 20:58 40.90323 -72.82496 14815 ft 306 kts 220°
2026-05-05 20:58 40.88595 -72.84135 14411 ft 305 kts 220°
2026-05-05 20:58 40.86874 -72.85759 14024 ft 303 kts 220°
2026-05-05 20:58 40.85169 -72.87379 13638 ft 301 kts 220°
2026-05-05 20:59 40.83480 -72.88990 13222 ft 298 kts 220°
2026-05-05 20:59 40.81806 -72.90588 12839 ft 295 kts 220°
2026-05-05 20:59 40.80153 -72.92168 12458 ft 292 kts 220°
2026-05-05 20:59 40.78514 -72.93736 12077 ft 290 kts 220°
2026-05-05 21:00 40.76891 -72.95287 11716 ft 287 kts 220°
2026-05-05 21:00 40.75304 -72.96804 11340 ft 285 kts 221°
2026-05-05 21:00 40.73704 -72.98332 10970 ft 283 kts 221°
2026-05-05 21:00 40.72130 -72.99832 10749 ft 273 kts 221°
2026-05-05 21:01 40.70634 -73.01269 10624 ft 258 kts 222°
2026-05-05 21:01 40.69415 -73.02874 10506 ft 239 kts 238°
2026-05-05 21:01 40.68720 -73.04792 10392 ft 230 kts 255°
2026-05-05 21:01 40.68524 -73.06882 10148 ft 231 kts 267°
2026-05-05 21:02 40.68536 -73.09002 9863 ft 236 kts 268°
2026-05-05 21:02 40.68643 -73.11230 9617 ft 251 kts 277°
2026-05-05 21:02 40.69372 -73.13362 9389 ft 262 kts 298°
2026-05-05 21:02 40.70475 -73.15291 9176 ft 264 kts 301°
2026-05-05 21:03 40.71634 -73.17174 8961 ft 264 kts 302°
2026-05-05 21:03 40.72798 -73.19051 8749 ft 264 kts 302°
2026-05-05 21:03 40.73957 -73.20918 8559 ft 263 kts 302°
2026-05-05 21:03 40.75118 -73.22786 8357 ft 263 kts 302°
2026-05-05 21:04 40.76272 -73.24652 8156 ft 263 kts 302°
2026-05-05 21:04 40.77421 -73.26523 7955 ft 263 kts 302°
2026-05-05 21:04 40.78571 -73.28394 7796 ft 263 kts 302°
2026-05-05 21:04 40.79720 -73.30265 7617 ft 262 kts 302°
2026-05-05 21:05 40.80866 -73.32140 7399 ft 263 kts 302°
2026-05-05 21:05 40.82017 -73.34028 7215 ft 264 kts 302°
2026-05-05 21:05 40.83173 -73.35918 7018 ft 264 kts 302°
2026-05-05 21:05 40.84101 -73.37952 6785 ft 254 kts 283°
2026-05-05 21:06 40.84398 -73.40208 6337 ft 247 kts 269°
2026-05-05 21:06 40.84342 -73.42461 5812 ft 244 kts 252°
2026-05-05 21:06 40.83623 -73.44455 5363 ft 240 kts 241°
2026-05-05 21:06 40.83034 -73.46489 4934 ft 240 kts 253°
2026-05-05 21:07 40.82656 -73.48632 4555 ft 238 kts 255°
2026-05-05 21:07 40.82328 -73.50717 4380 ft 227 kts 255°
2026-05-05 21:07 40.82019 -73.52706 4200 ft 215 kts 255°
2026-05-05 21:07 40.81727 -73.54589 4052 ft 204 kts 255°
2026-05-05 21:08 40.81451 -73.56371 3899 ft 193 kts 255°
2026-05-05 21:08 40.81186 -73.58080 3608 ft 188 kts 254°
2026-05-05 21:08 40.80898 -73.59727 3393 ft 181 kts 251°
2026-05-05 21:08 40.80508 -73.61309 3253 ft 182 kts 245°
2026-05-05 21:09 40.79990 -73.62826 3184 ft 181 kts 240°
2026-05-05 21:09 40.79354 -73.64247 3112 ft 179 kts 234°
2026-05-05 21:09 40.78529 -73.65468 3045 ft 179 kts 225°
2026-05-05 21:09 40.77627 -73.66602 2915 ft 180 kts 225°
2026-05-05 21:10 40.76714 -73.67729 2776 ft 180 kts 224°
2026-05-05 21:10 40.75682 -73.68679 2533 ft 182 kts 212°
2026-05-05 21:10 40.74578 -73.69490 2299 ft 181 kts 212°
2026-05-05 21:10 40.73503 -73.70294 2057 ft 171 kts 212°
2026-05-05 21:11 40.72841 -73.70788 1925 ft 159 kts 211°
2026-05-05 21:11 40.71914 -73.71470 1706 ft 146 kts 208°
2026-05-05 21:11 40.71051 -73.72074 1526 ft 135 kts 209°
2026-05-05 21:11 40.70262 -73.72638 1348 ft 124 kts 208°
2026-05-05 21:12 40.69503 -73.73179 1199 ft 126 kts 210°
2026-05-05 21:12 40.68733 -73.73727 1027 ft 127 kts 210°
2026-05-05 21:12 40.67958 -73.74278 865 ft 126 kts 208°
2026-05-05 21:12 40.67186 -73.74824 712 ft 125 kts 204°
2026-05-05 21:13 40.66406 -73.75316 509 ft 124 kts 205°
2026-05-05 21:13 40.65662 -73.75859 330 ft 121 kts 207°
2026-05-05 21:13 40.64976 -73.76379 179 ft 116 kts 206°
2026-05-05 21:13 40.64235 -73.76963 48 ft 124 kts 207°
2026-05-05 21:14 40.63548 -73.77496 28 ft 100 kts 211°
2026-05-05 21:14 40.63044 -73.77888 30 ft 70 kts 210°
2026-05-05 21:14 40.62698 -73.78166 29 ft 47 kts 211°
2026-05-05 21:14 40.62472 -73.78343 30 ft 29 kts 211°
2026-05-05 21:15 40.62347 -73.78441 30 ft 14 kts 211°
2026-05-05 21:15 40.62314 -73.78532 30 ft 12 kts 280°
2026-05-05 21:15 40.62377 -73.78613 28 ft 14 kts 355°
2026-05-05 21:15 40.62460 -73.78547 28 ft 15 kts 31°
2026-05-05 21:16 40.62559 -73.78468 28 ft 18 kts 31°
2026-05-05 21:16 40.62679 -73.78373 27 ft 22 kts 31°
2026-05-05 21:16 40.62819 -73.78262 27 ft 25 kts 31°
2026-05-05 21:16 40.62978 -73.78136 27 ft 28 kts 31°
2026-05-05 21:17 40.63157 -73.78001 30 ft 29 kts 20°
2026-05-05 21:17 40.63360 -73.77945 27 ft 31 kts 28°
2026-05-05 21:17 40.63510 -73.77835 26 ft 3 kts 10°
2026-05-05 21:17 40.63538 -73.77840 26 ft 5 kts 345°
2026-05-05 21:18 40.63580 -73.77867 26 ft 8 kts 334°
2026-05-05 21:18 40.63644 -73.77893 26 ft 11 kts 352°
2026-05-05 21:18 40.63732 -73.77908 26 ft 14 kts 353°
2026-05-05 21:18 40.63842 -73.77927 26 ft 17 kts 350°
2026-05-05 21:19 40.63860 -73.77937 26 ft 0 kts 326°
2026-05-05 21:19 40.63858 -73.77967 26 ft 6 kts 251°
2026-05-05 21:19 40.63847 -73.78033 26 ft 9 kts 262°
2026-05-05 21:19 40.63846 -73.78044 26 ft 0 kts 262°